| time (UTC) | temp F | wind direction | speed MPH | gust MPH | rain 1hr in | rain 24hr in | rain mn in | humidity % | barometer mb |
| 20260504150539 | 61 | 236 | 2.0 | 9.0 | 0.00 | 0.00 | 0.00 | 47 | 998.1 |
| 20260504141040 | 61 | 144 | 1.0 | 9.0 | 0.00 | 0.00 | 0.00 | 45 | 997.8 |
| 20260504140532 | 61 | 11 | 2.0 | 12.0 | 0.00 | 0.00 | 0.00 | 44 | 997.7 |
| 20260504140103 | 61 | 47 | 3.0 | 12.0 | 0.00 | 0.00 | 0.00 | 42 | 997.5 |
| 20260504130558 | 60 | 346 | 4.0 | 14.0 | 0.00 | 0.00 | 0.00 | 53 | 996.8 |
| 20260504110534 | 58 | 326 | 6.0 | 14.0 | 0.00 | 0.00 | 0.00 | 48 | 995.6 |
| 20260504100503 | 57 | 293 | 3.0 | 12.0 | 0.00 | 0.00 | 0.00 | 49 | 996.2 |
| 20260504081506 | 57 | 302 | 3.0 | 13.0 | 0.00 | 0.00 | 0.00 | 49 | 997.9 |
| 20260504081044 | 57 | 298 | 3.0 | 13.0 | 0.00 | 0.00 | 0.00 | 49 | 998.1 |
| 20260504080518 | 57 | 279 | 2.0 | 9.0 | 0.00 | 0.00 | 0.00 | 49 | 998.2 |
| 20260504070202 | 56 | 259 | 3.0 | 8.0 | 0.00 | 0.00 | 0.00 | 49 | 999.2 |
| 20260504050546 | 50 | 360 | 0.0 | 2.0 | 0.00 | 0.00 | 0.00 | 68 | 1001.4 |
| 20260504050024 | 50 | 360 | 0.0 | 2.0 | 0.00 | 0.00 | 0.00 | 69 | 1001.5 |
| 20260504045603 | 49 | 360 | 0.0 | 0.0 | 0.00 | 0.00 | 0.00 | 70 | 1001.5 |
| 20260504045022 | 49 | 360 | 0.0 | 0.0 | 0.00 | 0.00 | 0.00 | 70 | 1001.6 |
| 20260504044504 | 49 | 360 | 0.0 | 0.0 | 0.00 | 0.00 | 0.00 | 72 | 1001.7 |
| 20260504044028 | 49 | 360 | 0.0 | 1.0 | 0.00 | 0.00 | 0.00 | 74 | 1001.8 |
| 20260504043508 | 49 | 360 | 0.0 | 1.0 | 0.00 | 0.00 | 0.00 | 74 | 1001.9 |
| 20260504043039 | 48 | 360 | 0.0 | 0.0 | 0.00 | 0.00 | 0.00 | 75 | 1002.0 |
| 20260504042532 | 49 | 360 | 0.0 | 0.0 | 0.00 | 0.00 | 0.00 | 76 | 1002.1 |
| 20260504042018 | 49 | 360 | 0.0 | 0.0 | 0.00 | 0.00 | 0.00 | 75 | 1002.1 |
| 20260504041505 | 49 | 360 | 0.0 | 0.0 | 0.00 | 0.00 | 0.00 | 75 | 1002.2 |
| 20260504041004 | 49 | 360 | 0.0 | 0.0 | 0.00 | 0.00 | 0.00 | 75 | 1002.3 |
| 20260504040602 | 49 | 360 | 0.0 | 0.0 | 0.00 | 0.00 | 0.00 | 74 | 1002.3 |
| 20260504040037 | 49 | 360 | 0.0 | 0.0 | 0.00 | 0.00 | 0.00 | 75 | 1002.4 |
| 20260504035512 | 49 | 360 | 0.0 | 0.0 | 0.00 | 0.00 | 0.00 | 74 | 1002.6 |
| 20260504035058 | 49 | 360 | 0.0 | 0.0 | 0.00 | 0.00 | 0.00 | 73 | 1002.7 |
| 20260504034554 | 50 | 360 | 0.0 | 0.0 | 0.00 | 0.00 | 0.00 | 73 | 1002.8 |
| 20260504034037 | 50 | 360 | 0.0 | 0.0 | 0.00 | 0.00 | 0.00 | 71 | 1002.9 |
| 20260504033502 | 50 | 360 | 0.0 | 0.0 | 0.00 | 0.00 | 0.00 | 70 | 1002.9 |
| 20260504033028 | 50 | 360 | 0.0 | 0.0 | 0.00 | 0.00 | 0.00 | 69 | 1003.0 |
| 20260504032517 | 51 | 360 | 0.0 | 0.0 | 0.00 | 0.00 | 0.00 | 71 | 1003.1 |
| 20260504032008 | 51 | 360 | 0.0 | 0.0 | 0.00 | 0.00 | 0.00 | 75 | 1003.1 |
| 20260504031559 | 51 | 360 | 0.0 | 0.0 | 0.00 | 0.00 | 0.00 | 67 | 1003.1 |
| 20260504031023 | 52 | 360 | 0.0 | 0.0 | 0.00 | 0.00 | 0.00 | 71 | 1003.2 |
| 20260504030509 | 52 | 360 | 0.0 | 0.0 | 0.00 | 0.00 | 0.00 | 74 | 1003.2 |
| 20260504030029 | 53 | 360 | 0.0 | 0.0 | 0.00 | 0.00 | 0.00 | 73 | 1003.3 |
| 20260504025549 | 53 | 360 | 0.0 | 0.0 | 0.00 | 0.00 | 0.00 | 67 | 1003.3 |
| 20260504025109 | 53 | 360 | 0.0 | 0.0 | 0.00 | 0.00 | 0.00 | 66 | 1003.4 |
| 20260504024532 | 54 | 360 | 0.0 | 0.0 | 0.00 | 0.00 | 0.00 | 64 | 1003.4 |
| 20260504024104 | 54 | 360 | 0.0 | 0.0 | 0.00 | 0.00 | 0.00 | 61 | 1003.4 |
| 20260504023537 | 55 | 360 | 0.0 | 0.0 | 0.00 | 0.00 | 0.00 | 56 | 1003.4 |
| 20260504023011 | 56 | 360 | 0.0 | 0.0 | 0.00 | 0.00 | 0.00 | 58 | 1003.4 |
| 20260504022535 | 57 | 315 | 0.0 | 0.0 | 0.00 | 0.00 | 0.00 | 65 | 1003.5 |
| 20260504022002 | 58 | 315 | 0.0 | 0.0 | 0.00 | 0.00 | 0.00 | 68 | 1003.5 |
| 20260504021525 | 58 | 315 | 0.0 | 0.0 | 0.00 | 0.00 | 0.00 | 69 | 1003.4 |
| 20260504021106 | 59 | 315 | 0.0 | 0.0 | 0.00 | 0.00 | 0.00 | 62 | 1003.5 |
| 20260504020540 | 60 | 315 | 0.0 | 0.0 | 0.00 | 0.00 | 0.00 | 58 | 1003.5 |
| 20260504020007 | 61 | 315 | 0.0 | 0.0 | 0.00 | 0.00 | 0.00 | 57 | 1003.4 |
| 20260504015535 | 61 | 315 | 0.0 | 0.0 | 0.00 | 0.00 | 0.00 | 53 | 1003.4 |
| 20260504015008 | 62 | 315 | 0.0 | 1.0 | 0.00 | 0.00 | 0.00 | 45 | 1003.5 |
| 20260504014549 | 62 | 315 | 0.0 | 2.0 | 0.00 | 0.00 | 0.00 | 41 | 1003.5 |
| 20260504014026 | 63 | 315 | 0.0 | 2.0 | 0.00 | 0.00 | 0.00 | 36 | 1003.7 |
| 20260504013557 | 64 | 315 | 0.0 | 0.0 | 0.00 | 0.00 | 0.00 | 39 | 1003.6 |
| 20260504013041 | 64 | 315 | 0.0 | 2.0 | 0.00 | 0.00 | 0.00 | 34 | 1003.7 |
| 20260504012604 | 65 | 315 | 0.0 | 2.0 | 0.00 | 0.00 | 0.00 | 33 | 1003.7 |
| 20260504012015 | 65 | 315 | 0.0 | 0.0 | 0.00 | 0.00 | 0.00 | 33 | 1003.8 |
| 20260504011556 | 65 | 315 | 0.0 | 4.0 | 0.00 | 0.00 | 0.00 | 32 | 1003.8 |
| 20260504011027 | 66 | 315 | 1.0 | 4.0 | 0.00 | 0.00 | 0.00 | 32 | 1003.8 |
| 20260504010519 | 66 | 336 | 0.0 | 3.0 | 0.00 | 0.00 | 0.00 | 32 | 1003.7 |
| 20260504010106 | 66 | 311 | 0.0 | 3.0 | 0.00 | 0.00 | 0.00 | 32 | 1003.7 |
| 20260504005517 | 66 | 310 | 0.0 | 4.0 | 0.00 | 0.00 | 0.00 | 32 | 1003.8 |
| 20260504005059 | 66 | 300 | 1.0 | 4.0 | 0.00 | 0.00 | 0.00 | 32 | 1003.9 |
| 20260504004522 | 67 | 341 | 1.0 | 5.0 | 0.00 | 0.00 | 0.00 | 31 | 1003.9 |
| 20260504004002 | 67 | 317 | 2.0 | 9.0 | 0.00 | 0.00 | 0.00 | 31 | 1003.9 |
| 20260504003522 | 67 | 327 | 4.0 | 9.0 | 0.00 | 0.00 | 0.00 | 30 | 1003.8 |
| 20260504003045 | 67 | 331 | 2.0 | 8.0 | 0.00 | 0.00 | 0.00 | 32 | 1003.9 |
| 20260504002531 | 67 | 331 | 1.0 | 6.0 | 0.00 | 0.00 | 0.00 | 33 | 1003.9 |
| 20260504002058 | 67 | 11 | 2.0 | 6.0 | 0.00 | 0.00 | 0.00 | 32 | 1003.9 |
| 20260504001513 | 67 | 328 | 3.0 | 8.0 | 0.00 | 0.00 | 0.00 | 31 | 1003.9 |
| 20260504001051 | 67 | 344 | 3.0 | 8.0 | 0.00 | 0.00 | 0.00 | 32 | 1004.0 |
| 20260504000520 | 67 | 335 | 1.0 | 4.0 | 0.00 | 0.00 | 0.00 | 32 | 1004.1 |
| 20260504000101 | 68 | 308 | 1.0 | 4.0 | 0.00 | 0.00 | 0.00 | 32 | 1004.0 |
| 20260503235600 | 68 | 326 | 1.0 | 5.0 | 0.00 | 0.00 | 0.00 | 31 | 1004.0 |
| 20260503235037 | 68 | 327 | 2.0 | 5.0 | 0.00 | 0.00 | 0.00 | 30 | 1003.9 |
| 20260503234509 | 69 | 266 | 1.0 | 5.0 | 0.00 | 0.00 | 0.00 | 31 | 1003.9 |
| 20260503234029 | 69 | 316 | 2.0 | 8.0 | 0.00 | 0.00 | 0.00 | 30 | 1003.9 |
| 20260503233549 | 69 | 323 | 1.0 | 8.0 | 0.00 | 0.00 | 0.00 | 30 | 1004.0 |
| 20260503233108 | 70 | 321 | 0.0 | 6.0 | 0.00 | 0.00 | 0.00 | 30 | 1004.0 |
| 20260503232523 | 70 | 328 | 1.0 | 6.0 | 0.00 | 0.00 | 0.00 | 30 | 1004.2 |
| 20260503232039 | 70 | 14 | 3.0 | 6.0 | 0.00 | 0.00 | 0.00 | 30 | 1004.3 |
| 20260503231559 | 70 | 328 | 2.0 | 9.0 | 0.00 | 0.00 | 0.00 | 29 | 1004.4 |
| 20260503231009 | 70 | 64 | 1.0 | 9.0 | 0.00 | 0.00 | 0.00 | 30 | 1004.3 |
| 20260503230553 | 70 | 319 | 3.0 | 10.0 | 0.00 | 0.00 | 0.00 | 30 | 1004.4 |
| 20260503230014 | 70 | 316 | 5.0 | 10.0 | 0.00 | 0.00 | 0.00 | 29 | 1004.4 |
| 20260503225544 | 70 | 312 | 1.0 | 9.0 | 0.00 | 0.00 | 0.00 | 28 | 1004.4 |
| 20260503225018 | 70 | 282 | 3.0 | 9.0 | 0.00 | 0.00 | 0.00 | 28 | 1004.5 |
| 20260503224537 | 70 | 320 | 3.0 | 11.0 | 0.00 | 0.00 | 0.00 | 29 | 1004.5 |
| 20260503224057 | 70 | 344 | 4.0 | 11.0 | 0.00 | 0.00 | 0.00 | 28 | 1004.5 |
| 20260503223517 | 70 | 312 | 2.0 | 9.0 | 0.00 | 0.00 | 0.00 | 29 | 1004.6 |
| 20260503223005 | 70 | 305 | 3.0 | 9.0 | 0.00 | 0.00 | 0.00 | 29 | 1004.6 |
| 20260503222526 | 70 | 310 | 3.0 | 6.0 | 0.00 | 0.00 | 0.00 | 30 | 1004.6 |
| 20260503222047 | 71 | 327 | 3.0 | 8.0 | 0.00 | 0.00 | 0.00 | 28 | 1004.6 |
| 20260503221529 | 71 | 333 | 2.0 | 9.0 | 0.00 | 0.00 | 0.00 | 29 | 1004.5 |
| 20260503221103 | 71 | 325 | 3.0 | 9.0 | 0.00 | 0.00 | 0.00 | 30 | 1004.6 |
| 20260503220509 | 71 | 325 | 2.0 | 7.0 | 0.00 | 0.00 | 0.00 | 31 | 1004.6 |
| 20260503220029 | 71 | 112 | 1.0 | 8.0 | 0.00 | 0.00 | 0.00 | 32 | 1004.6 |
| 20260503215509 | 71 | 19 | 2.0 | 10.0 | 0.00 | 0.00 | 0.00 | 30 | 1004.6 |
| 20260503215046 | 72 | 300 | 3.0 | 10.0 | 0.00 | 0.00 | 0.00 | 30 | 1004.6 |
| 20260503214606 | 72 | 290 | 0.0 | 6.0 | 0.00 | 0.00 | 0.00 | 33 | 1004.6 |
| 20260503214017 | 72 | 336 | 2.0 | 4.0 | 0.00 | 0.00 | 0.00 | 31 | 1004.7 |
| 20260503213537 | 71 | 318 | 1.0 | 5.0 | 0.00 | 0.00 | 0.00 | 31 | 1004.7 |
| 20260503213011 | 71 | 146 | 1.0 | 8.0 | 0.00 | 0.00 | 0.00 | 31 | 1004.8 |
| 20260503212534 | 71 | 326 | 1.0 | 8.0 | 0.00 | 0.00 | 0.00 | 31 | 1004.8 |
| 20260503212050 | 71 | 312 | 3.0 | 11.0 | 0.00 | 0.00 | 0.00 | 31 | 1004.8 |
| 20260503211525 | 71 | 244 | 2.0 | 11.0 | 0.00 | 0.00 | 0.00 | 34 | 1004.9 |
| 20260503211059 | 72 | 311 | 3.0 | 8.0 | 0.00 | 0.00 | 0.00 | 31 | 1004.9 |
| 20260503210542 | 71 | 348 | 1.0 | 5.0 | 0.00 | 0.00 | 0.00 | 33 | 1004.8 |
| 20260503210013 | 70 | 243 | 1.0 | 9.0 | 0.00 | 0.00 | 0.00 | 35 | 1005.0 |
| 20260503205509 | 70 | 323 | 3.0 | 9.0 | 0.00 | 0.00 | 0.00 | 32 | 1005.0 |
| 20260503205029 | 71 | 319 | 2.0 | 9.0 | 0.00 | 0.00 | 0.00 | 32 | 1005.1 |
| 20260503204548 | 71 | 294 | 2.0 | 9.0 | 0.00 | 0.00 | 0.00 | 33 | 1005.2 |
| 20260503204026 | 71 | 21 | 3.0 | 8.0 | 0.00 | 0.00 | 0.00 | 33 | 1005.3 |
| 20260503203604 | 70 | 59 | 3.0 | 9.0 | 0.00 | 0.00 | 0.00 | 34 | 1005.2 |
| 20260503203018 | 70 | 355 | 3.0 | 9.0 | 0.00 | 0.00 | 0.00 | 31 | 1005.4 |
| 20260503202559 | 70 | 350 | 3.0 | 9.0 | 0.00 | 0.00 | 0.00 | 32 | 1005.4 |
| 20260503202009 | 70 | 253 | 1.0 | 11.0 | 0.00 | 0.00 | 0.00 | 35 | 1005.4 |
| 20260503201529 | 70 | 355 | 3.0 | 11.0 | 0.00 | 0.00 | 0.00 | 33 | 1005.4 |
| 20260503201003 | 70 | 343 | 4.0 | 9.0 | 0.00 | 0.00 | 0.00 | 34 | 1005.5 |
| 20260503200522 | 70 | 332 | 1.0 | 9.0 | 0.00 | 0.00 | 0.00 | 34 | 1005.6 |
| 20260503200043 | 70 | 335 | 2.0 | 9.0 | 0.00 | 0.00 | 0.00 | 32 | 1005.6 |
| 20260503195518 | 71 | 294 | 3.0 | 6.0 | 0.00 | 0.00 | 0.00 | 34 | 1005.8 |
| 20260503195051 | 71 | 249 | 1.0 | 6.0 | 0.00 | 0.00 | 0.00 | 33 | 1005.8 |
| 20260503194512 | 71 | 30 | 2.0 | 8.0 | 0.00 | 0.00 | 0.00 | 33 | 1005.9 |
| 20260503194031 | 71 | 315 | 2.0 | 8.0 | 0.00 | 0.00 | 0.00 | 34 | 1005.8 |
| 20260503193509 | 71 | 312 | 1.0 | 4.0 | 0.00 | 0.00 | 0.00 | 33 | 1005.9 |
| 20260503193107 | 71 | 85 | 0.0 | 6.0 | 0.00 | 0.00 | 0.00 | 34 | 1005.9 |
| 20260503192526 | 71 | 198 | 2.0 | 6.0 | 0.00 | 0.00 | 0.00 | 34 | 1005.8 |
| 20260503192051 | 71 | 315 | 2.0 | 6.0 | 0.00 | 0.00 | 0.00 | 36 | 1005.9 |
| 20260503191505 | 70 | 78 | 2.0 | 9.0 | 0.00 | 0.00 | 0.00 | 37 | 1005.8 |
| 20260503191058 | 69 | 94 | 3.0 | 9.0 | 0.00 | 0.00 | 0.00 | 36 | 1005.8 |
| 20260503190529 | 70 | 331 | 3.0 | 8.0 | 0.00 | 0.00 | 0.00 | 35 | 1005.9 |
| 20260503190050 | 71 | 294 | 2.0 | 8.0 | 0.00 | 0.00 | 0.00 | 37 | 1005.9 |
| 20260503185517 | 70 | 315 | 2.0 | 8.0 | 0.00 | 0.00 | 0.00 | 37 | 1005.9 |
| 20260503185052 | 70 | 122 | 3.0 | 8.0 | 0.00 | 0.00 | 0.00 | 37 | 1005.9 |
| 20260503184522 | 70 | 59 | 3.0 | 7.0 | 0.00 | 0.00 | 0.00 | 37 | 1006.0 |
| 20260503184048 | 70 | 74 | 2.0 | 6.0 | 0.00 | 0.00 | 0.00 | 36 | 1006.1 |
| 20260503183522 | 70 | 103 | 2.0 | 6.0 | 0.00 | 0.00 | 0.00 | 34 | 1006.2 |
| 20260503183107 | 70 | 269 | 1.0 | 7.0 | 0.00 | 0.00 | 0.00 | 39 | 1006.2 |
| 20260503182522 | 69 | 78 | 1.0 | 19.0 | 0.00 | 0.00 | 0.00 | 38 | 1006.1 |
| 20260503182006 | 68 | 323 | 7.0 | 19.0 | 0.00 | 0.00 | 0.00 | 38 | 1006.1 |
| 20260503181555 | 69 | 319 | 4.0 | 11.0 | 0.00 | 0.00 | 0.00 | 38 | 1006.2 |
| 20260503181031 | 69 | 344 | 2.0 | 6.0 | 0.00 | 0.00 | 0.00 | 38 | 1006.3 |
| 20260503180559 | 69 | 346 | 1.0 | 8.0 | 0.00 | 0.00 | 0.00 | 39 | 1006.4 |
| 20260503180054 | 69 | 260 | 3.0 | 8.0 | 0.00 | 0.00 | 0.00 | 40 | 1006.3 |
| 20260503175533 | 69 | 326 | 1.0 | 12.0 | 0.00 | 0.00 | 0.00 | 42 | 1006.3 |
| 20260503175006 | 69 | 290 | 3.0 | 9.0 | 0.00 | 0.00 | 0.00 | 39 | 1006.4 |
| 20260503174603 | 69 | 306 | 1.0 | 6.0 | 0.00 | 0.00 | 0.00 | 42 | 1006.4 |
| 20260503174021 | 69 | 167 | 1.0 | 6.0 | 0.00 | 0.00 | 0.00 | 42 | 1006.5 |
| 20260503173546 | 68 | 175 | 2.0 | 9.0 | 0.00 | 0.00 | 0.00 | 42 | 1006.4 |
| 20260503173005 | 68 | 274 | 4.0 | 9.0 | 0.00 | 0.00 | 0.00 | 43 | 1006.4 |
| 20260503172550 | 68 | 355 | 2.0 | 11.0 | 0.00 | 0.00 | 0.00 | 46 | 1006.5 |
| 20260503172029 | 68 | 308 | 3.0 | 9.0 | 0.00 | 0.00 | 0.00 | 46 | 1006.4 |
| 20260503171611 | 68 | 338 | 4.0 | 9.0 | 0.00 | 0.00 | 0.00 | 44 | 1006.5 |
| 20260503171016 | 68 | 80 | 1.0 | 12.0 | 0.00 | 0.00 | 0.00 | 44 | 1006.5 |
| 20260503170509 | 68 | 294 | 3.0 | 12.0 | 0.00 | 0.00 | 0.00 | 46 | 1006.5 |
| 20260503151011 | 64 | 90 | 2.0 | 8.0 | 0.00 | 0.00 | 0.00 | 48 | 1006.2 |